Overview Statistics Trail Chart Weather Telemetry Raw packets
 

This is the latest recevied weather packets stored in our database for station/object DG1ROH. If no packets are shown the sender has not sent any weather packets the latest 10 day(s).

<< 149 150 151 152 153 154 155 >>
Time Temp. Humidity Pressure Rain* Wind** Luminosity Snow
1777392067 14.44° C 35% 1023.9 hPa 0 mm - 63 W/m² -
1777391946 14.44° C 34% 1023.8 hPa 0 mm - 88 W/m² -
1777391826 15° C 34% 1023.9 hPa 0 mm - 70 W/m² -
1777391705 15° C 35% 1023.9 hPa 0 mm - 77 W/m² -
1777391586 15° C 37% 1024 hPa 0 mm - 98 W/m² -
1777391465 15° C 36% 1024 hPa 0 mm - 186 W/m² -
1777391344 14.44° C 36% 1024 hPa 0 mm - 214 W/m² -
1777391224 14.44° C 35% 1023.9 hPa 0 mm - 172 W/m² -
1777391103 14.44° C 35% 1024 hPa 0 mm - 128 W/m² -
1777390984 14.44° C 36% 1023.9 hPa 0 mm - 186 W/m² -
1777390864 15° C 34% 1024.1 hPa 0 mm - 262 W/m² -
1777390743 15° C 39% 1024.1 hPa 0 mm - 315 W/m² -
1777390624 15° C 36% 1024.1 hPa 0 mm - 323 W/m² -
1777390504 15° C 36% 1024.1 hPa 0 mm - 287 W/m² -
1777390383 15° C 33% 1024 hPa 0 mm - 330 W/m² -
1777390264 15° C 33% 1024 hPa 0 mm - 352 W/m² -
1777390144 15° C 36% 1024 hPa 0 mm - 359 W/m² -
1777390024 15° C 35% 1024 hPa 0 mm - 364 W/m² -
1777389904 15° C 35% 1024 hPa 0 mm - 369 W/m² -
1777389784 15° C 33% 1024 hPa 0 mm - 374 W/m² -
1777389659 15° C 35% 1024.1 hPa 0 mm - 380 W/m² -
1777389539 15° C 34% 1024.1 hPa 0 mm - 357 W/m² -
1777389420 15° C 36% 1024.1 hPa 0 mm - 364 W/m² -
1777389299 15° C 34% 1024.1 hPa 0 mm - 390 W/m² -
1777389179 15° C 35% 1024.2 hPa 0 mm - 394 W/m² -

* Rain latest hour (hover to see other rain measurements)
** Current wind speed in m/s (hover to see current wind gust speed)